Location: Blankensee
(53.5126°N, 14.3055°E)
Time: 18:12:33
(UTC+00:00)

Cosmos 990 Rocket - Pass Details

Date: 08 August 2020
Orbit: 747 x 768 km, 74.0° (Epoch: 20 September)

Event Time Altitude Azimuth Distance (km) Brightness Sun altitude
Exits shadow 01:44:23 15° 192° (SSW) 1,957 5.6 -12.8°
Maximum altitude 01:48:40 68° 112° (ESE) 815 4.2 -12.4°
Drops below altitude 10° 01:53:49 10° 30° (NNE) 2,287 7.9 -11.9°
Sets 01:56:11 0° 28° (NNE) 3,214 9.0 -11.7°
